Year,Month,Day,Hour,Minute,Value (Times are PST for temperature in C)
2014,07,14,00,00,27.80
2014,07,14,00,01,27.80
2014,07,14,00,02,27.70
2014,07,14,00,03,27.70
2014,07,14,00,04,27.60
2014,07,14,00,05,27.60
2014,07,14,00,06,27.50
2014,07,14,00,07,27.40
2014,07,14,00,08,27.40
2014,07,14,00,09,27.30
2014,07,14,00,10,27.30
2014,07,14,00,11,27.30
2014,07,14,00,12,27.30
2014,07,14,00,13,27.20
2014,07,14,00,14,27.20
2014,07,14,00,15,27.10
2014,07,14,00,16,27.10
2014,07,14,00,17,27.00
2014,07,14,00,18,26.90
2014,07,14,00,19,26.90
2014,07,14,00,20,26.80
2014,07,14,00,21,26.80
2014,07,14,00,22,26.70
2014,07,14,00,23,26.70
2014,07,14,00,24,26.60
2014,07,14,00,25,26.60
2014,07,14,00,26,26.60
2014,07,14,00,27,26.60
2014,07,14,00,28,26.60
2014,07,14,00,29,26.50
2014,07,14,00,30,26.40
2014,07,14,00,31,26.40
2014,07,14,00,32,26.40
2014,07,14,00,33,26.40
2014,07,14,00,34,26.30
2014,07,14,00,35,26.30
2014,07,14,00,36,26.30
2014,07,14,00,37,26.20
2014,07,14,00,38,26.20
2014,07,14,00,39,26.10
2014,07,14,00,40,26.00
2014,07,14,00,41,25.90
2014,07,14,00,42,25.90
2014,07,14,00,43,25.80
2014,07,14,00,44,25.70
2014,07,14,00,45,25.70
2014,07,14,00,46,25.60
2014,07,14,00,47,25.60
2014,07,14,00,48,25.60
2014,07,14,00,49,25.50
2014,07,14,00,50,25.50
2014,07,14,00,51,25.50
2014,07,14,00,52,25.40
2014,07,14,00,53,25.40
2014,07,14,00,54,25.40
2014,07,14,00,55,25.40
2014,07,14,00,56,25.40
2014,07,14,00,57,25.50
2014,07,14,00,58,25.50
2014,07,14,00,59,25.50
2014,07,14,01,00,25.40
2014,07,14,01,01,25.40
2014,07,14,01,02,25.40
2014,07,14,01,03,25.40
2014,07,14,01,04,25.40
2014,07,14,01,05,25.40
2014,07,14,01,06,25.40
2014,07,14,01,07,25.40
2014,07,14,01,08,25.40
2014,07,14,01,09,25.30
2014,07,14,01,10,25.30
2014,07,14,01,11,25.30
2014,07,14,01,12,25.20
2014,07,14,01,13,25.20
2014,07,14,01,14,25.20
2014,07,14,01,15,25.10
2014,07,14,01,16,25.10
2014,07,14,01,17,25.00
2014,07,14,01,18,25.00
2014,07,14,01,19,24.90
2014,07,14,01,20,24.90
2014,07,14,01,21,24.80
2014,07,14,01,22,24.80
2014,07,14,01,23,24.80
2014,07,14,01,24,24.70
2014,07,14,01,25,24.70
2014,07,14,01,26,24.60
2014,07,14,01,27,24.60
2014,07,14,01,28,24.50
2014,07,14,01,29,24.50
2014,07,14,01,30,24.50
2014,07,14,01,31,24.60
2014,07,14,01,32,24.60
2014,07,14,01,33,24.60
2014,07,14,01,34,24.70
2014,07,14,01,35,24.70
2014,07,14,01,36,24.70
2014,07,14,01,37,24.80
2014,07,14,01,38,24.80
2014,07,14,01,39,24.80
2014,07,14,01,40,24.90
2014,07,14,01,41,24.90
2014,07,14,01,42,24.90
2014,07,14,01,43,24.90
2014,07,14,01,44,24.90
2014,07,14,01,45,24.90
2014,07,14,01,46,24.90
2014,07,14,01,47,24.90
2014,07,14,01,48,24.90
2014,07,14,01,49,24.90
2014,07,14,01,50,24.80
2014,07,14,01,51,24.80
2014,07,14,01,52,24.80
2014,07,14,01,53,24.80
2014,07,14,01,54,24.80
2014,07,14,01,55,24.80
2014,07,14,01,56,24.80
2014,07,14,01,57,24.70
2014,07,14,01,58,24.70
2014,07,14,01,59,24.70
2014,07,14,02,00,24.70
2014,07,14,02,01,24.70
2014,07,14,02,02,24.70
2014,07,14,02,03,24.70
2014,07,14,02,04,24.70
2014,07,14,02,05,24.70
2014,07,14,02,06,24.70
2014,07,14,02,07,24.70
2014,07,14,02,08,24.70
2014,07,14,02,09,24.70
2014,07,14,02,10,24.70
2014,07,14,02,11,24.60
2014,07,14,02,12,24.60
2014,07,14,02,13,24.60
2014,07,14,02,14,24.60
2014,07,14,02,15,24.60
2014,07,14,02,16,24.60
2014,07,14,02,17,24.60
2014,07,14,02,18,24.70
2014,07,14,02,19,24.70
2014,07,14,02,20,24.70
2014,07,14,02,21,24.70
2014,07,14,02,22,24.70
2014,07,14,02,23,24.70
2014,07,14,02,24,24.70
2014,07,14,02,25,24.80
2014,07,14,02,26,24.80
2014,07,14,02,27,24.80
2014,07,14,02,28,24.80
2014,07,14,02,29,24.80
2014,07,14,02,30,24.80
2014,07,14,02,31,24.80
2014,07,14,02,32,24.80
2014,07,14,02,33,24.70
2014,07,14,02,34,24.70
2014,07,14,02,35,24.70
2014,07,14,02,36,24.70
2014,07,14,02,37,24.70
2014,07,14,02,38,24.70
2014,07,14,02,39,24.70
2014,07,14,02,40,24.70
2014,07,14,02,41,24.70
2014,07,14,02,42,24.60
2014,07,14,02,43,24.60
2014,07,14,02,44,24.50
2014,07,14,02,45,24.50
2014,07,14,02,46,24.50
2014,07,14,02,47,24.40
2014,07,14,02,48,24.40
2014,07,14,02,49,24.30
2014,07,14,02,50,24.30
2014,07,14,02,51,24.30
2014,07,14,02,52,24.30
2014,07,14,02,53,24.30
2014,07,14,02,54,24.30
2014,07,14,02,55,24.30
2014,07,14,02,56,24.30
2014,07,14,02,57,24.30
2014,07,14,02,58,24.20
2014,07,14,02,59,24.30
2014,07,14,03,00,24.30
2014,07,14,03,01,24.30
2014,07,14,03,02,24.30
2014,07,14,03,03,24.30
2014,07,14,03,04,24.30
2014,07,14,03,05,24.20
2014,07,14,03,06,24.20
2014,07,14,03,07,24.20
2014,07,14,03,08,24.20
2014,07,14,03,09,24.20
2014,07,14,03,10,24.20
2014,07,14,03,11,24.10
2014,07,14,03,12,24.10
2014,07,14,03,13,24.10
2014,07,14,03,14,24.10
2014,07,14,03,15,24.10
2014,07,14,03,16,24.10
2014,07,14,03,17,24.10
2014,07,14,03,18,24.10
2014,07,14,03,19,24.10
2014,07,14,03,20,24.00
2014,07,14,03,21,23.90
2014,07,14,03,22,23.90
2014,07,14,03,23,23.80
2014,07,14,03,24,23.80
2014,07,14,03,25,23.80
2014,07,14,03,26,23.70
2014,07,14,03,27,23.70
2014,07,14,03,28,23.70
2014,07,14,03,29,23.70
2014,07,14,03,30,23.70
2014,07,14,03,31,23.60
2014,07,14,03,32,23.60
2014,07,14,03,33,23.60
2014,07,14,03,34,23.60
2014,07,14,03,35,23.60
2014,07,14,03,36,23.50
2014,07,14,03,37,23.40
2014,07,14,03,38,23.40
2014,07,14,03,39,23.40
2014,07,14,03,40,23.40
2014,07,14,03,41,23.30
2014,07,14,03,42,23.30
2014,07,14,03,43,23.30
2014,07,14,03,44,23.30
2014,07,14,03,45,23.30
2014,07,14,03,46,23.30
2014,07,14,03,47,23.30
2014,07,14,03,48,23.30
2014,07,14,03,49,23.30
2014,07,14,03,50,23.30
2014,07,14,03,51,23.20
2014,07,14,03,52,23.20
2014,07,14,03,53,23.20
2014,07,14,03,54,23.20
2014,07,14,03,55,23.20
2014,07,14,03,56,23.20
2014,07,14,03,57,23.20
2014,07,14,03,58,23.20
2014,07,14,03,59,23.20
2014,07,14,04,00,23.20
2014,07,14,04,01,23.10
2014,07,14,04,02,23.10
2014,07,14,04,03,23.10
2014,07,14,04,04,23.10
2014,07,14,04,05,23.10
2014,07,14,04,06,23.10
2014,07,14,04,07,23.10
2014,07,14,04,08,23.10
2014,07,14,04,09,23.10
2014,07,14,04,10,23.10
2014,07,14,04,11,23.00
2014,07,14,04,12,22.90
2014,07,14,04,13,22.90
2014,07,14,04,14,22.90
2014,07,14,04,15,22.90
2014,07,14,04,16,22.90
2014,07,14,04,17,22.90
2014,07,14,04,18,22.90
2014,07,14,04,19,22.90
2014,07,14,04,20,22.90
2014,07,14,04,21,22.90
2014,07,14,04,22,22.90
2014,07,14,04,23,22.90
2014,07,14,04,24,22.90
2014,07,14,04,25,22.90
2014,07,14,04,26,22.90
2014,07,14,04,27,22.90
2014,07,14,04,28,22.90
2014,07,14,04,29,22.90
2014,07,14,04,30,22.90
2014,07,14,04,31,22.90
2014,07,14,04,32,22.90
2014,07,14,04,33,22.90
2014,07,14,04,34,22.90
2014,07,14,04,35,22.90
2014,07,14,04,36,22.90
2014,07,14,04,37,22.90
2014,07,14,04,38,22.90
2014,07,14,04,39,22.90
2014,07,14,04,40,22.90
2014,07,14,04,41,22.90
2014,07,14,04,42,22.90
2014,07,14,04,43,22.90
2014,07,14,04,44,22.90
2014,07,14,04,45,22.90
2014,07,14,04,46,22.90
2014,07,14,04,47,22.90
2014,07,14,04,48,22.90
2014,07,14,04,49,22.90
2014,07,14,04,50,22.90
2014,07,14,04,51,22.90
2014,07,14,04,52,22.90
2014,07,14,04,53,22.90
2014,07,14,04,54,22.90
2014,07,14,04,55,22.90
2014,07,14,04,56,22.90
2014,07,14,04,57,22.90
2014,07,14,04,58,22.90
2014,07,14,04,59,22.90
2014,07,14,05,00,22.90
2014,07,14,05,01,22.90
2014,07,14,05,02,22.90
2014,07,14,05,03,22.90
2014,07,14,05,04,22.90
2014,07,14,05,05,22.90
2014,07,14,05,06,22.90
2014,07,14,05,07,22.90
2014,07,14,05,08,22.90
2014,07,14,05,09,22.90
2014,07,14,05,10,22.80
2014,07,14,05,11,22.80
2014,07,14,05,12,22.80
2014,07,14,05,13,22.80
2014,07,14,05,14,22.80
2014,07,14,05,15,22.80
2014,07,14,05,16,22.70
2014,07,14,05,17,22.70
2014,07,14,05,18,22.70
2014,07,14,05,19,22.70
2014,07,14,05,20,22.60
2014,07,14,05,21,22.60
2014,07,14,05,22,22.60
2014,07,14,05,23,22.50
2014,07,14,05,24,22.50
2014,07,14,05,25,22.40
2014,07,14,05,26,22.40
2014,07,14,05,27,22.40
2014,07,14,05,28,22.30
2014,07,14,05,29,22.30
2014,07,14,05,30,22.30
2014,07,14,05,31,22.30
2014,07,14,05,32,22.20
2014,07,14,05,33,22.20
2014,07,14,05,34,22.10
2014,07,14,05,35,22.10
2014,07,14,05,36,22.10
2014,07,14,05,37,22.00
2014,07,14,05,38,22.00
2014,07,14,05,39,22.00
2014,07,14,05,40,21.90
2014,07,14,05,41,21.90
2014,07,14,05,42,21.80
2014,07,14,05,43,21.80
2014,07,14,05,44,21.70
2014,07,14,05,45,21.70
2014,07,14,05,46,21.70
2014,07,14,05,47,21.60
2014,07,14,05,48,21.60
2014,07,14,05,49,21.60
2014,07,14,05,50,21.60
2014,07,14,05,51,21.50
2014,07,14,05,52,21.40
2014,07,14,05,53,21.40
2014,07,14,05,54,21.30
2014,07,14,05,55,21.30
2014,07,14,05,56,21.30
2014,07,14,05,57,21.30
2014,07,14,05,58,21.30
2014,07,14,05,59,21.30
2014,07,14,06,00,21.30
2014,07,14,06,01,21.30
2014,07,14,06,02,21.30
2014,07,14,06,03,21.30
2014,07,14,06,04,21.40
2014,07,14,06,05,21.50
2014,07,14,06,06,21.60
2014,07,14,06,07,21.60
2014,07,14,06,08,21.60
2014,07,14,06,09,21.60
2014,07,14,06,10,21.60
2014,07,14,06,11,21.60
2014,07,14,06,12,21.60
2014,07,14,06,13,21.60
2014,07,14,06,14,21.60
2014,07,14,06,15,21.60
2014,07,14,06,16,21.60
2014,07,14,06,17,21.60
2014,07,14,06,18,21.60
2014,07,14,06,19,21.50
2014,07,14,06,20,21.50
2014,07,14,06,21,21.60
2014,07,14,06,22,21.60
2014,07,14,06,23,21.60
2014,07,14,06,24,21.60
2014,07,14,06,25,21.60
2014,07,14,06,26,21.60
2014,07,14,06,27,21.50
2014,07,14,06,28,21.40
2014,07,14,06,29,21.40
2014,07,14,06,30,21.40
2014,07,14,06,31,21.40
2014,07,14,06,32,21.40
2014,07,14,06,33,21.50
2014,07,14,06,34,21.60
2014,07,14,06,35,21.60
2014,07,14,06,36,21.60
2014,07,14,06,37,21.60
2014,07,14,06,38,21.60
2014,07,14,06,39,21.60
2014,07,14,06,40,21.60
2014,07,14,06,41,21.60
2014,07,14,06,42,21.60
2014,07,14,06,43,21.60
2014,07,14,06,44,21.60
2014,07,14,06,45,21.60
2014,07,14,06,46,21.60
2014,07,14,06,47,21.60
2014,07,14,06,48,21.60
2014,07,14,06,49,21.60
2014,07,14,06,50,21.60
2014,07,14,06,51,21.60
2014,07,14,06,52,21.60
2014,07,14,06,53,21.60
2014,07,14,06,54,21.60
2014,07,14,06,55,21.60
2014,07,14,06,56,21.60
2014,07,14,06,57,21.60
2014,07,14,06,58,21.60
2014,07,14,06,59,21.60
2014,07,14,07,00,21.60
2014,07,14,07,01,21.60
2014,07,14,07,02,21.60
2014,07,14,07,03,21.60
2014,07,14,07,04,21.60
2014,07,14,07,05,21.60
2014,07,14,07,06,21.60
2014,07,14,07,07,21.60
2014,07,14,07,08,21.60
2014,07,14,07,09,21.70
2014,07,14,07,10,21.70
2014,07,14,07,11,21.70
2014,07,14,07,12,21.70
2014,07,14,07,13,21.70
2014,07,14,07,14,21.70
2014,07,14,07,15,21.70
2014,07,14,07,16,21.80
2014,07,14,07,17,21.80
2014,07,14,07,18,21.80
2014,07,14,07,19,21.80
2014,07,14,07,20,21.80
2014,07,14,07,21,21.90
2014,07,14,07,22,21.90
2014,07,14,07,23,22.00
2014,07,14,07,24,22.00
2014,07,14,07,25,22.00
2014,07,14,07,26,22.00
2014,07,14,07,27,22.10
2014,07,14,07,28,22.10
2014,07,14,07,29,22.10
2014,07,14,07,30,22.10
2014,07,14,07,31,22.20
2014,07,14,07,32,22.20
2014,07,14,07,33,22.20
2014,07,14,07,34,22.30
2014,07,14,07,35,22.30
2014,07,14,07,36,22.30
2014,07,14,07,37,22.30
2014,07,14,07,38,22.40
2014,07,14,07,39,22.40
2014,07,14,07,40,22.40
2014,07,14,07,41,22.50
2014,07,14,07,42,22.60
2014,07,14,07,43,22.60
2014,07,14,07,44,22.70
2014,07,14,07,45,22.80
2014,07,14,07,46,22.80
2014,07,14,07,47,22.90
2014,07,14,07,48,23.00
2014,07,14,07,49,23.10
2014,07,14,07,50,23.20
2014,07,14,07,51,23.30
2014,07,14,07,52,23.30
2014,07,14,07,53,23.40
2014,07,14,07,54,23.50
2014,07,14,07,55,23.60
2014,07,14,07,56,23.60
2014,07,14,07,57,23.60
2014,07,14,07,58,23.60
2014,07,14,07,59,23.60
2014,07,14,08,00,23.60
2014,07,14,08,01,23.40
2014,07,14,08,02,23.40
2014,07,14,08,03,23.30
2014,07,14,08,04,23.30
2014,07,14,08,05,23.30
2014,07,14,08,06,23.40
2014,07,14,08,07,23.50
2014,07,14,08,08,23.60
2014,07,14,08,09,23.60
2014,07,14,08,10,23.60
2014,07,14,08,11,23.60
2014,07,14,08,12,23.50
2014,07,14,08,13,23.40
2014,07,14,08,14,23.30
2014,07,14,08,15,23.30
2014,07,14,08,16,23.10
2014,07,14,08,17,23.00
2014,07,14,08,18,22.90
2014,07,14,08,19,22.80
2014,07,14,08,20,22.70
2014,07,14,08,21,22.60
2014,07,14,08,22,22.60
2014,07,14,08,23,22.50
2014,07,14,08,24,22.50
2014,07,14,08,25,22.50
2014,07,14,08,26,22.50
2014,07,14,08,27,22.50
2014,07,14,08,28,22.60
2014,07,14,08,29,22.60
2014,07,14,08,30,22.50
2014,07,14,08,31,22.50
2014,07,14,08,32,22.50
2014,07,14,08,33,22.50
2014,07,14,08,34,22.50
2014,07,14,08,35,22.50
2014,07,14,08,36,22.50
2014,07,14,08,37,22.50
2014,07,14,08,38,22.50
2014,07,14,08,39,22.50
2014,07,14,08,40,22.50
2014,07,14,08,41,22.50
2014,07,14,08,42,22.50
2014,07,14,08,43,22.50
2014,07,14,08,44,22.50
2014,07,14,08,45,22.50
2014,07,14,08,46,22.50
2014,07,14,08,47,22.50
2014,07,14,08,48,22.40
2014,07,14,08,49,22.40
2014,07,14,08,50,22.40
2014,07,14,08,51,22.40
2014,07,14,08,52,22.30
2014,07,14,08,53,22.30
2014,07,14,08,54,22.30
2014,07,14,08,55,22.20
2014,07,14,08,56,22.20
2014,07,14,08,57,22.20
2014,07,14,08,58,22.20
2014,07,14,08,59,22.20
2014,07,14,09,00,22.20
2014,07,14,09,01,22.10
2014,07,14,09,02,22.10
2014,07,14,09,03,22.10
2014,07,14,09,04,22.10
2014,07,14,09,05,22.10
2014,07,14,09,06,22.20
2014,07,14,09,07,22.20
2014,07,14,09,08,22.30
2014,07,14,09,09,22.40
2014,07,14,09,10,22.50
2014,07,14,09,11,22.60
2014,07,14,09,12,22.70
2014,07,14,09,13,22.90
2014,07,14,09,14,23.10
2014,07,14,09,15,23.20
2014,07,14,09,16,23.30
2014,07,14,09,17,23.30
2014,07,14,09,18,23.50
2014,07,14,09,19,23.60
2014,07,14,09,20,23.70
2014,07,14,09,21,23.90
2014,07,14,09,22,24.00
2014,07,14,09,23,24.10
2014,07,14,09,24,24.20
2014,07,14,09,25,24.40
2014,07,14,09,26,24.50
2014,07,14,09,27,24.60
2014,07,14,09,28,24.70
2014,07,14,09,29,24.80
2014,07,14,09,30,24.90
2014,07,14,09,31,24.90
2014,07,14,09,32,24.90
2014,07,14,09,33,25.00
2014,07,14,09,34,25.00
2014,07,14,09,35,25.00
2014,07,14,09,36,25.00
2014,07,14,09,37,25.00
2014,07,14,09,38,25.10
2014,07,14,09,39,25.10
2014,07,14,09,40,25.20
2014,07,14,09,41,25.10
2014,07,14,09,42,25.10
2014,07,14,09,43,25.10
2014,07,14,09,44,25.00
2014,07,14,09,45,24.90
2014,07,14,09,46,24.90
2014,07,14,09,47,24.80
2014,07,14,09,48,24.70
2014,07,14,09,49,24.60
2014,07,14,09,50,24.50
2014,07,14,09,51,24.50
2014,07,14,09,52,24.40
2014,07,14,09,53,24.40
2014,07,14,09,54,24.30
2014,07,14,09,55,24.20
2014,07,14,09,56,24.20
2014,07,14,09,57,24.20
2014,07,14,09,58,24.20
2014,07,14,09,59,24.20
2014,07,14,10,00,24.20
2014,07,14,10,01,24.10
2014,07,14,10,02,24.00
2014,07,14,10,03,23.90
2014,07,14,10,04,23.80
2014,07,14,10,05,23.70
2014,07,14,10,06,23.70
2014,07,14,10,07,23.70
2014,07,14,10,08,23.70
2014,07,14,10,09,23.70
2014,07,14,10,10,23.70
2014,07,14,10,11,23.70
2014,07,14,10,12,23.70
2014,07,14,10,13,23.80
2014,07,14,10,14,23.90
2014,07,14,10,15,24.00
2014,07,14,10,16,24.10
2014,07,14,10,17,24.10
2014,07,14,10,18,24.20
2014,07,14,10,19,24.30
2014,07,14,10,20,24.30
2014,07,14,10,21,24.40
2014,07,14,10,22,24.50
2014,07,14,10,23,24.60
2014,07,14,10,24,24.70
2014,07,14,10,25,24.80
2014,07,14,10,26,24.90
2014,07,14,10,27,25.00
2014,07,14,10,28,25.10
2014,07,14,10,29,25.10
2014,07,14,10,30,25.20
2014,07,14,10,31,25.30
2014,07,14,10,32,25.30
2014,07,14,10,33,25.40
2014,07,14,10,34,25.40
2014,07,14,10,35,25.50
2014,07,14,10,36,25.60
2014,07,14,10,37,25.70
2014,07,14,10,38,25.80
2014,07,14,10,39,25.90
2014,07,14,10,40,25.90
2014,07,14,10,41,26.00
2014,07,14,10,42,26.10
2014,07,14,10,43,26.30
2014,07,14,10,44,26.40
2014,07,14,10,45,26.40
2014,07,14,10,46,26.50
2014,07,14,10,47,26.50
2014,07,14,10,48,26.40
2014,07,14,10,49,26.30
2014,07,14,10,50,26.20
2014,07,14,10,51,26.10
2014,07,14,10,52,26.00
2014,07,14,10,53,25.90
2014,07,14,10,54,25.70
2014,07,14,10,55,25.60
2014,07,14,10,56,25.40
2014,07,14,10,57,25.40
2014,07,14,10,58,25.30
2014,07,14,10,59,25.20
2014,07,14,11,00,25.10
2014,07,14,11,01,25.10
2014,07,14,11,02,25.10
2014,07,14,11,03,25.10
2014,07,14,11,04,25.10
2014,07,14,11,05,25.10
2014,07,14,11,06,25.10
2014,07,14,11,07,25.10
2014,07,14,11,08,25.00
2014,07,14,11,09,25.00
2014,07,14,11,10,25.00
2014,07,14,11,11,25.00
2014,07,14,11,12,25.00
2014,07,14,11,13,25.00
2014,07,14,11,14,25.00
2014,07,14,11,15,25.00
2014,07,14,11,16,25.00
2014,07,14,11,17,25.10
2014,07,14,11,18,25.20
2014,07,14,11,19,25.30
2014,07,14,11,20,25.40
2014,07,14,11,21,25.60
2014,07,14,11,22,25.70
2014,07,14,11,23,25.90
2014,07,14,11,24,26.00
2014,07,14,11,25,26.20
2014,07,14,11,26,26.30
2014,07,14,11,27,26.40
2014,07,14,11,28,26.60
2014,07,14,11,29,26.70
2014,07,14,11,30,26.70
2014,07,14,11,31,26.70
2014,07,14,11,32,26.60
2014,07,14,11,33,26.60
2014,07,14,11,34,26.60
2014,07,14,11,35,26.60
2014,07,14,11,36,26.60
2014,07,14,11,37,26.70
2014,07,14,11,38,26.80
2014,07,14,11,39,26.90
2014,07,14,11,40,26.90
2014,07,14,11,41,26.90
2014,07,14,11,42,26.90
2014,07,14,11,43,27.00
2014,07,14,11,44,27.10
2014,07,14,11,45,27.20
2014,07,14,11,46,27.30
2014,07,14,11,47,27.30
2014,07,14,11,48,27.30
2014,07,14,11,49,27.30
2014,07,14,11,50,27.30
2014,07,14,11,51,27.40
2014,07,14,11,52,27.50
2014,07,14,11,53,27.50
2014,07,14,11,54,27.40
2014,07,14,11,55,27.40
2014,07,14,11,56,27.50
2014,07,14,11,57,27.60
2014,07,14,11,58,27.50
2014,07,14,11,59,27.40
2014,07,14,12,00,27.40
2014,07,14,12,01,27.40
2014,07,14,12,02,27.30
2014,07,14,12,03,27.30
2014,07,14,12,04,27.30
2014,07,14,12,05,27.30
2014,07,14,12,06,27.20
2014,07,14,12,07,27.20
2014,07,14,12,08,27.20
2014,07,14,12,09,27.30
2014,07,14,12,10,27.30
2014,07,14,12,11,27.30
2014,07,14,12,12,27.40
2014,07,14,12,13,27.50
2014,07,14,12,14,27.60
2014,07,14,12,15,27.60
2014,07,14,12,16,27.70
2014,07,14,12,17,27.70
2014,07,14,12,18,27.70
2014,07,14,12,19,27.80
2014,07,14,12,20,27.90
2014,07,14,12,21,28.00
2014,07,14,12,22,28.00
2014,07,14,12,23,28.00
2014,07,14,12,24,28.00
2014,07,14,12,25,28.00
2014,07,14,12,26,28.00
2014,07,14,12,27,28.00
2014,07,14,12,28,28.00
2014,07,14,12,29,28.00
2014,07,14,12,30,28.00
2014,07,14,12,31,28.10
2014,07,14,12,32,28.10
2014,07,14,12,33,28.10
2014,07,14,12,34,28.10
2014,07,14,12,35,28.10
2014,07,14,12,36,28.10
2014,07,14,12,37,28.00
2014,07,14,12,38,28.00
2014,07,14,12,39,28.00
2014,07,14,12,40,28.00
2014,07,14,12,41,28.00
2014,07,14,12,42,28.00
2014,07,14,12,43,28.00
2014,07,14,12,44,28.00
2014,07,14,12,45,28.00
2014,07,14,12,46,28.00
2014,07,14,12,47,28.00
2014,07,14,12,48,28.00
2014,07,14,12,49,28.00
2014,07,14,12,50,28.00
2014,07,14,12,51,28.10
2014,07,14,12,52,28.10
2014,07,14,12,53,28.20
2014,07,14,12,54,28.30
2014,07,14,12,55,28.40
2014,07,14,12,56,28.40
2014,07,14,12,57,28.40
2014,07,14,12,58,28.30
2014,07,14,12,59,28.20
2014,07,14,13,00,28.20
2014,07,14,13,01,28.20
2014,07,14,13,02,28.20
2014,07,14,13,03,28.20
2014,07,14,13,04,28.10
2014,07,14,13,05,28.20
2014,07,14,13,06,28.20
2014,07,14,13,07,28.30
2014,07,14,13,08,28.40
2014,07,14,13,09,28.50
2014,07,14,13,10,28.60
2014,07,14,13,11,28.60
2014,07,14,13,12,28.70
2014,07,14,13,13,28.70
2014,07,14,13,14,28.60
2014,07,14,13,15,28.70
2014,07,14,13,16,28.70
2014,07,14,13,17,28.70
2014,07,14,13,18,28.80
2014,07,14,13,19,28.80
2014,07,14,13,20,28.90
2014,07,14,13,21,28.90
2014,07,14,13,22,28.90
2014,07,14,13,23,28.90
2014,07,14,13,24,28.80
2014,07,14,13,25,28.80
2014,07,14,13,26,28.80
2014,07,14,13,27,28.70
2014,07,14,13,28,28.70
2014,07,14,13,29,28.70
2014,07,14,13,30,28.70
2014,07,14,13,31,28.70
2014,07,14,13,32,28.70
2014,07,14,13,33,28.80
2014,07,14,13,34,28.80
2014,07,14,13,35,28.90
2014,07,14,13,36,28.90
2014,07,14,13,37,28.90
2014,07,14,13,38,28.90
2014,07,14,13,39,28.90
2014,07,14,13,40,28.90
2014,07,14,13,41,28.90
2014,07,14,13,42,28.90
2014,07,14,13,43,29.00
2014,07,14,13,44,29.10
2014,07,14,13,45,29.10
2014,07,14,13,46,29.10
2014,07,14,13,47,29.10
2014,07,14,13,48,29.20
2014,07,14,13,49,29.10
2014,07,14,13,50,29.10
2014,07,14,13,51,29.10
2014,07,14,13,52,29.10
2014,07,14,13,53,29.10
2014,07,14,13,54,29.10
2014,07,14,13,55,29.20
2014,07,14,13,56,29.20
2014,07,14,13,57,29.30
2014,07,14,13,58,29.40
2014,07,14,13,59,29.50
2014,07,14,14,00,29.60
2014,07,14,14,01,29.60
2014,07,14,14,02,29.70
2014,07,14,14,03,29.80
2014,07,14,14,04,29.80
2014,07,14,14,05,29.80
2014,07,14,14,06,29.70
2014,07,14,14,07,29.70
2014,07,14,14,08,29.50
2014,07,14,14,09,29.50
2014,07,14,14,10,29.50
2014,07,14,14,11,29.50
2014,07,14,14,12,29.50
2014,07,14,14,13,29.50
2014,07,14,14,14,29.50
2014,07,14,14,15,29.50
2014,07,14,14,16,29.50
2014,07,14,14,17,29.50
2014,07,14,14,18,29.50
2014,07,14,14,19,29.60
2014,07,14,14,20,29.70
2014,07,14,14,21,29.70
2014,07,14,14,22,29.80
2014,07,14,14,23,29.80
2014,07,14,14,24,29.70
2014,07,14,14,25,29.70
2014,07,14,14,26,29.80
2014,07,14,14,27,29.80
2014,07,14,14,28,29.90
2014,07,14,14,29,29.90
2014,07,14,14,30,29.90
2014,07,14,14,31,30.00
2014,07,14,14,32,30.10
2014,07,14,14,33,30.10
2014,07,14,14,34,30.10
2014,07,14,14,35,30.10
2014,07,14,14,36,30.00
2014,07,14,14,37,29.90
2014,07,14,14,38,29.80
2014,07,14,14,39,29.80
2014,07,14,14,40,29.80
2014,07,14,14,41,29.80
2014,07,14,14,42,29.90
2014,07,14,14,43,30.00
2014,07,14,14,44,30.10
2014,07,14,14,45,30.10
2014,07,14,14,46,29.90
2014,07,14,14,47,29.90
2014,07,14,14,48,29.90
2014,07,14,14,49,29.90
2014,07,14,14,50,29.90
2014,07,14,14,51,29.90
2014,07,14,14,52,29.90
2014,07,14,14,53,29.90
2014,07,14,14,54,30.00
2014,07,14,14,55,30.10
2014,07,14,14,56,30.20
2014,07,14,14,57,30.20
2014,07,14,14,58,30.30
2014,07,14,14,59,30.30
2014,07,14,15,00,30.30
2014,07,14,15,01,30.40
2014,07,14,15,02,30.50
2014,07,14,15,03,30.40
2014,07,14,15,04,30.30
2014,07,14,15,05,30.30
2014,07,14,15,06,30.30
2014,07,14,15,07,30.40
2014,07,14,15,08,30.50
2014,07,14,15,09,30.60
2014,07,14,15,10,30.80
2014,07,14,15,11,30.80
2014,07,14,15,12,30.80
2014,07,14,15,13,30.90
2014,07,14,15,14,30.80
2014,07,14,15,15,30.90
2014,07,14,15,16,30.90
2014,07,14,15,17,30.90
2014,07,14,15,18,30.90
2014,07,14,15,19,30.90
2014,07,14,15,20,30.90
2014,07,14,15,21,30.90
2014,07,14,15,22,31.00
2014,07,14,15,23,31.00
2014,07,14,15,24,31.00
2014,07,14,15,25,31.00
2014,07,14,15,26,31.10
2014,07,14,15,27,31.10
2014,07,14,15,28,30.90
2014,07,14,15,29,30.90
2014,07,14,15,30,30.90
2014,07,14,15,31,30.90
2014,07,14,15,32,30.90
2014,07,14,15,33,30.80
2014,07,14,15,34,30.80
2014,07,14,15,35,30.80
2014,07,14,15,36,30.70
2014,07,14,15,37,30.70
2014,07,14,15,38,30.70
2014,07,14,15,39,30.70
2014,07,14,15,40,30.70
2014,07,14,15,41,30.80
2014,07,14,15,42,30.80
2014,07,14,15,43,30.90
2014,07,14,15,44,31.00
2014,07,14,15,45,31.00
2014,07,14,15,46,31.00
2014,07,14,15,47,31.00
2014,07,14,15,48,31.00
2014,07,14,15,49,31.00
2014,07,14,15,50,31.00
2014,07,14,15,51,30.90
2014,07,14,15,52,30.80
2014,07,14,15,53,30.80
2014,07,14,15,54,30.70
2014,07,14,15,55,30.70
2014,07,14,15,56,30.60
2014,07,14,15,57,30.40
2014,07,14,15,58,30.30
2014,07,14,15,59,30.20
2014,07,14,16,00,30.10
2014,07,14,16,01,30.00
2014,07,14,16,02,29.80
2014,07,14,16,03,29.80
2014,07,14,16,04,29.70
2014,07,14,16,05,29.60
2014,07,14,16,06,29.60
2014,07,14,16,07,29.60
2014,07,14,16,08,29.60
2014,07,14,16,09,29.60
2014,07,14,16,10,29.50
2014,07,14,16,11,29.50
2014,07,14,16,12,29.60
2014,07,14,16,13,29.60
2014,07,14,16,14,29.60
2014,07,14,16,15,29.60
2014,07,14,16,16,29.70
2014,07,14,16,17,29.60
2014,07,14,16,18,29.60
2014,07,14,16,19,29.60
2014,07,14,16,20,29.70
2014,07,14,16,21,29.70
2014,07,14,16,22,29.80
2014,07,14,16,23,29.90
2014,07,14,16,24,29.90
2014,07,14,16,25,30.00
2014,07,14,16,26,30.10
2014,07,14,16,27,30.20
2014,07,14,16,28,30.30
2014,07,14,16,29,30.30
2014,07,14,16,30,30.30
2014,07,14,16,31,30.30
2014,07,14,16,32,30.40
2014,07,14,16,33,30.40
2014,07,14,16,34,30.50
2014,07,14,16,35,30.40
2014,07,14,16,36,30.40
2014,07,14,16,37,30.30
2014,07,14,16,38,30.30
2014,07,14,16,39,30.30
2014,07,14,16,40,30.20
2014,07,14,16,41,30.20
2014,07,14,16,42,30.10
2014,07,14,16,43,30.10
2014,07,14,16,44,30.10
2014,07,14,16,45,30.10
2014,07,14,16,46,30.10
2014,07,14,16,47,30.10
2014,07,14,16,48,30.10
2014,07,14,16,49,30.00
2014,07,14,16,50,29.90
2014,07,14,16,51,29.90
2014,07,14,16,52,30.00
2014,07,14,16,53,30.10
2014,07,14,16,54,30.20
2014,07,14,16,55,30.30
2014,07,14,16,56,30.30
2014,07,14,16,57,30.30
2014,07,14,16,58,30.30
2014,07,14,16,59,30.30
2014,07,14,17,00,30.30
2014,07,14,17,01,30.30
2014,07,14,17,02,30.30
2014,07,14,17,03,30.30
2014,07,14,17,04,30.30
2014,07,14,17,05,30.30
2014,07,14,17,06,30.30
2014,07,14,17,07,30.30
2014,07,14,17,08,30.30
2014,07,14,17,09,30.30
2014,07,14,17,10,30.30
2014,07,14,17,11,30.30
2014,07,14,17,12,30.30
2014,07,14,17,13,30.30
2014,07,14,17,14,30.30
2014,07,14,17,15,30.30
2014,07,14,17,16,30.40
2014,07,14,17,17,30.50
2014,07,14,17,18,30.60
2014,07,14,17,19,30.70